Showing default

PERSEUS M2, 40037

Orbit data source: Space-Track

PERSEUS M2, 40037 is a payload satellite owned by Canopus Sys (CIS) in SSO that was launched on Thu, 19 Jun 2014 UTC via a DNEPR launch vehicle from the Orenburg, Russia (OREN). Payload-class satellites include a variety of spacecraft equipped with specific instruments for various scientific and technological missions. These include communications satellites like Starlink; space stations such as the ISS; scientific satellites like the Hubble; Earth observation satellites from companies like Planet Labs, Umbra, and HawkEye 360; GPS; miniature CubeSats for education and research; and military/defense satellites.

Loading next visibility...
Identifier
40037, 2014-033AD
Orbit
SSO
Country
Flag of CISCIS
Related business
None
Manufacturer
Canopus Sys
Mission
Operational Commercial Communications
Bus & Motor
CUBESAT 6U, Unknown motor
Mass
~10 kg wet, ~10 kg dry
Launch date (UTC)
2014-06-19 (11 years ago)
Launch vehicle
DNEPR
Launch site
Orenburg, Russia (OREN)
Object type
Payload
Rocket body
Debris
Shape & HBR
Box, 0.1 m
Radar Cross Section
0.105 m², Medium (>0.1 m² and < 1m²)

Expand to show TLE details & history
Last TLE update: 18 hours ago

TLE from 18 hours ago
0 PERSEUS M2
1 40037U 14033AD  25242.28812955  .00002419  00000-0  23228-3 0  9996
2 40037  97.9575 182.8736 0012170 176.7874 183.3426 14.94000641607328
Epoch: 2025-08-30T06:54Z
TLE epoch observation values (Epoch: 2025-08-30T06:54:54.393Z)
Latitude
0.00003°
Longitude
100.42238°
Altitude
596.977 km
Speed
7.557 km/s
True Right ascension
12h 11m 29s
True Declination
0° 00' 00"
Sunlit
Object was in daylight at epoch
Visualization orbit readout
Latitude
Unknown
Longitude
Unknown
Altitude
Unknown
Speed
Unknown
Apparent Right ascension
Unknown
Apparent Declination
Unknown
Sunlit
N/A
Visualization observer readout
Local Sidereal Time
16:04:01
Azimuth
Unknown
Elevation
Unknown
Doppler factor
Unknown
Orbital elements
Apogee altitude
590.972 km
Perigee altitude
574.03 km
Semi-major axis
6,960.638 km
Eccentricity
0.00122
Inclination
97.9575°
RAAN
182.8736°
Arg. of periapsis
176.7874°
True anomaly
183.33448°
Mean anomaly
183.3426°
Eccentric anomaly
183.33854°
Mean motion
3.7374 °/min
Orbital period
96.32 mins
BSTAR
0.00023228
Loading maneuver chart data...
Computing Atmospheric mass density...
Loading historical data...
Loading historical data...
Loading historical data...
Loading historical data...
Loading historical data...
Loading historical data...
Loading historical data...

Documentation

Showing up to 5 results
|